{"data":{"norad_id":62915,"epoch":"2026-05-24T16:48:59.604768Z","epoch_age_seconds":101106,"freshness":"FRESH","line1":"1 62915U 25027J   26144.70068987  .00156846  00000+0  12036-2 0  9994","line2":"2 62915  43.0004 249.7661 0001574 293.1407  66.9294 15.70825288 75143","mean_motion":15.70825288,"eccentricity":0.0001574,"inclination_deg":43.0004,"raan_deg":249.7661,"arg_perigee_deg":293.1407,"mean_anomaly_deg":66.9294,"bstar":0.0012036,"rev_number":7514,"period_min":91.671557047151,"perigee_km":355.47707384099,"apogee_km":357.59714925131,"semimajor_km":6734.6741115462,"source":"CELESTRAK","updated_at":"2026-05-25T13:38:19.820558Z"}}